| time (UTC) | temp C | wind direction | speed KPH | gust KPH | rain 1hr cm | rain 24hr cm | rain mn cm | humidity % | barometer mb |
| 20260504215148 | 23 | 309 | 6.4 | 6.4 | 0.00 | 0.00 | 0.00 | 28 | 1003.8 |
| 20260504214643 | 23 | 189 | 4.8 | 6.4 | 0.00 | 0.00 | 0.00 | 29 | 1003.8 |
| 20260504214140 | 23 | 229 | 3.2 | 3.2 | 0.00 | 0.00 | 0.00 | 29 | 1003.9 |
| 20260504213637 | 23 | 207 | 3.2 | 4.8 | 0.00 | 0.00 | 0.00 | 28 | 1004.0 |
| 20260504213133 | 23 | 194 | 1.6 | 1.6 | 0.00 | 0.00 | 0.00 | 31 | 1003.9 |
| 20260504212630 | 23 | 236 | 4.8 | 4.8 | 0.00 | 0.00 | 0.00 | 27 | 1003.9 |
| 20260504212127 | 23 | 166 | 0.0 | 1.6 | 0.00 | 0.00 | 0.00 | 29 | 1004.1 |
| 20260504211624 | 23 | 132 | 4.8 | 9.7 | 0.00 | 0.00 | 0.00 | 29 | 1004.1 |
| 20260504211121 | 23 | 135 | 3.2 | 6.4 | 0.00 | 0.00 | 0.00 | 29 | 1004.2 |
| 20260504210619 | 23 | 221 | 1.6 | 3.2 | 0.00 | 0.00 | 0.00 | 28 | 1004.1 |
| 20260504210114 | 23 | 190 | 3.2 | 4.8 | 0.00 | 0.00 | 0.00 | 29 | 1004.1 |
| 20260504205612 | 24 | 189 | 6.4 | 6.4 | 0.00 | 0.00 | 0.00 | 27 | 1004.2 |
| 20260504205110 | 23 | 306 | 3.2 | 4.8 | 0.00 | 0.00 | 0.00 | 29 | 1004.1 |
| 20260504204608 | 23 | 200 | 4.8 | 6.4 | 0.00 | 0.00 | 0.00 | 30 | 1004.1 |
| 20260504204107 | 23 | 200 | 4.8 | 6.4 | 0.00 | 0.00 | 0.00 | 30 | 1004.2 |
| 20260504203605 | 23 | 267 | 6.4 | 9.7 | 0.00 | 0.00 | 0.00 | 28 | 1004.5 |
| 20260504203102 | 23 | 279 | 6.4 | 9.7 | 0.00 | 0.00 | 0.00 | 29 | 1004.5 |
| 20260504202557 | 22 | 200 | 4.8 | 6.4 | 0.00 | 0.00 | 0.00 | 32 | 1004.7 |
| 20260504202054 | 22 | 193 | 3.2 | 4.8 | 0.00 | 0.00 | 0.00 | 30 | 1004.6 |
| 20260504201551 | 23 | 0 | 3.2 | 4.8 | 0.00 | 0.00 | 0.00 | 31 | 1004.7 |
| 20260504201049 | 23 | 265 | 3.2 | 4.8 | 0.00 | 0.00 | 0.00 | 30 | 1004.8 |
| 20260504200545 | 23 | 337 | 3.2 | 3.2 | 0.00 | 0.00 | 0.00 | 33 | 1004.8 |
| 20260504200042 | 23 | 219 | 1.6 | 1.6 | 0.00 | 0.00 | 0.00 | 31 | 1004.8 |
| 20260504195538 | 22 | 238 | 3.2 | 4.8 | 0.00 | 0.00 | 0.00 | 32 | 1005.1 |
| 20260504195035 | 22 | 10 | 3.2 | 4.8 | 0.00 | 0.00 | 0.00 | 33 | 1004.9 |
| 20260504194531 | 22 | 247 | 8.0 | 12.9 | 0.00 | 0.00 | 0.00 | 32 | 1005.2 |
| 20260504194026 | 22 | 208 | 3.2 | 4.8 | 0.00 | 0.00 | 0.00 | 31 | 1005.2 |
| 20260504193523 | 23 | 281 | 6.4 | 6.4 | 0.00 | 0.00 | 0.00 | 33 | 1005.3 |
| 20260504193022 | 22 | 263 | 8.0 | 12.9 | 0.00 | 0.00 | 0.00 | 33 | 1005.3 |
| 20260504192520 | 21 | 197 | 3.2 | 3.2 | 0.00 | 0.00 | 0.00 | 34 | 1005.3 |
| 20260504192018 | 21 | 180 | 1.6 | 3.2 | 0.00 | 0.00 | 0.00 | 33 | 1005.5 |
| 20260504191516 | 22 | 106 | 1.6 | 3.2 | 0.00 | 0.00 | 0.00 | 34 | 1005.5 |
| 20260504191012 | 22 | 45 | 4.8 | 9.7 | 0.00 | 0.00 | 0.00 | 34 | 1005.6 |
| 20260504190508 | 21 | 306 | 4.8 | 6.4 | 0.00 | 0.00 | 0.00 | 36 | 1005.5 |
| 20260504190004 | 21 | 237 | 6.4 | 6.4 | 0.00 | 0.00 | 0.00 | 37 | 1005.6 |
| 20260504185501 | 21 | 175 | 1.6 | 3.2 | 0.00 | 0.00 | 0.00 | 37 | 1005.7 |
| 20260504184957 | 21 | 219 | 1.6 | 1.6 | 0.00 | 0.00 | 0.00 | 38 | 1005.8 |
| 20260504184453 | 21 | 99 | 3.2 | 4.8 | 0.00 | 0.00 | 0.00 | 38 | 1005.6 |
| 20260504183949 | 21 | 266 | 6.4 | 9.7 | 0.00 | 0.00 | 0.00 | 37 | 1005.9 |
| 20260504183446 | 21 | 265 | 6.4 | 9.7 | 0.00 | 0.00 | 0.00 | 35 | 1005.9 |
| 20260504182944 | 21 | 273 | 8.0 | 9.7 | 0.00 | 0.00 | 0.00 | 37 | 1005.8 |
| 20260504182440 | 21 | 217 | 4.8 | 6.4 | 0.00 | 0.00 | 0.00 | 37 | 1006.1 |
| 20260504181938 | 20 | 197 | 0.0 | 1.6 | 0.00 | 0.00 | 0.00 | 41 | 1006.2 |
| 20260504181435 | 20 | 44 | 4.8 | 6.4 | 0.00 | 0.00 | 0.00 | 42 | 1006.1 |
| 20260504180933 | 20 | 304 | 14.5 | 17.7 | 0.00 | 0.00 | 0.00 | 40 | 1006.0 |
| 20260504180432 | 20 | 16 | 6.4 | 12.9 | 0.00 | 0.00 | 0.00 | 42 | 1006.1 |
| 20260504175930 | 20 | 207 | 4.8 | 4.8 | 0.00 | 0.00 | 0.00 | 41 | 1006.0 |
| 20260504175427 | 20 | 208 | 1.6 | 1.6 | 0.00 | 0.00 | 0.00 | 42 | 1006.1 |
| 20260504174924 | 21 | 198 | 1.6 | 1.6 | 0.00 | 0.00 | 0.00 | 42 | 1006.1 |
| 20260504174422 | 20 | 222 | 3.2 | 3.2 | 0.00 | 0.00 | 0.00 | 42 | 1006.1 |
| 20260504173919 | 20 | 355 | 6.4 | 12.9 | 0.00 | 0.00 | 0.00 | 42 | 1006.2 |
| 20260504173415 | 21 | 243 | 3.2 | 3.2 | 0.00 | 0.00 | 0.00 | 42 | 1006.0 |
| 20260504172913 | 20 | 274 | 8.0 | 11.3 | 0.00 | 0.00 | 0.00 | 42 | 1006.1 |
| 20260504172409 | 20 | 263 | 6.4 | 9.7 | 0.00 | 0.00 | 0.00 | 42 | 1006.2 |
| 20260504171905 | 21 | 201 | 1.6 | 3.2 | 0.00 | 0.00 | 0.00 | 42 | 1006.0 |
| 20260504171403 | 21 | 233 | 3.2 | 4.8 | 0.00 | 0.00 | 0.00 | 43 | 1006.2 |
| 20260504170859 | 20 | 141 | 1.6 | 1.6 | 0.00 | 0.00 | 0.00 | 43 | 1006.2 |
| 20260504170356 | 20 | 298 | 1.6 | 4.8 | 0.00 | 0.00 | 0.00 | 46 | 1006.1 |
| 20260504160315 | 18 | 156 | 1.6 | 1.6 | 0.00 | 0.00 | 0.00 | 46 | 1007.0 |
| 20260504150739 | 16 | 272 | 3.2 | 4.8 | 0.00 | 0.00 | 0.00 | 51 | 1007.4 |
| 20260504150236 | 16 | 165 | 3.2 | 4.8 | 0.00 | 0.00 | 0.00 | 49 | 1007.3 |
| 20260504141206 | 14 | 184 | 1.6 | 3.2 | 0.00 | 0.00 | 0.00 | 52 | 1007.3 |
| 20260504140702 | 14 | 129 | 1.6 | 1.6 | 0.00 | 0.00 | 0.00 | 52 | 1007.4 |
| 20260504140158 | 13 | 178 | 1.6 | 3.2 | 0.00 | 0.00 | 0.00 | 52 | 1007.5 |
| 20260504130626 | 12 | 147 | 1.6 | 1.6 | 0.00 | 0.00 | 0.00 | 55 | 1007.9 |
| 20260504130123 | 12 | 162 | 4.8 | 9.7 | 0.00 | 0.00 | 0.00 | 53 | 1008.1 |
| 20260504110514 | 10 | 153 | 3.2 | 6.4 | 0.00 | 0.00 | 0.00 | 57 | 1008.0 |
| 20260504100431 | 9 | 187 | 1.6 | 1.6 | 0.00 | 0.00 | 0.00 | 57 | 1007.5 |
| 20260504081824 | 9 | 182 | 0.0 | 0.0 | 0.00 | 0.00 | 0.00 | 55 | 1008.5 |
| 20260504081321 | 9 | 183 | 1.6 | 1.6 | 0.00 | 0.00 | 0.00 | 55 | 1008.6 |
| 20260504080816 | 9 | 163 | 1.6 | 1.6 | 0.00 | 0.00 | 0.00 | 55 | 1008.5 |
| 20260504080314 | 9 | 183 | 3.2 | 4.8 | 0.00 | 0.00 | 0.00 | 55 | 1008.6 |
| 20260504070235 | 8 | 195 | 0.0 | 0.0 | 0.00 | 0.00 | 0.00 | 57 | 1008.9 |
| 20260504060155 | 9 | 171 | 3.2 | 3.2 | 0.00 | 0.00 | 0.00 | 54 | 1009.2 |
| 20260504050624 | 10 | 208 | 1.6 | 3.2 | 0.00 | 0.00 | 0.00 | 54 | 1009.6 |
| 20260504050121 | 10 | 106 | 0.0 | 1.6 | 0.00 | 0.00 | 0.00 | 53 | 1009.5 |
| 20260504045618 | 10 | 191 | 1.6 | 3.2 | 0.00 | 0.00 | 0.00 | 53 | 1009.4 |
| 20260504045112 | 10 | 209 | 1.6 | 1.6 | 0.00 | 0.00 | 0.00 | 52 | 1009.6 |
| 20260504044611 | 10 | 158 | 4.8 | 6.4 | 0.00 | 0.00 | 0.00 | 53 | 1009.5 |
| 20260504044107 | 10 | 206 | 0.0 | 0.0 | 0.00 | 0.00 | 0.00 | 53 | 1009.5 |
| 20260504043604 | 10 | 193 | 0.0 | 0.0 | 0.00 | 0.00 | 0.00 | 53 | 1009.5 |
| 20260504043101 | 10 | 211 | 1.6 | 3.2 | 0.00 | 0.00 | 0.00 | 53 | 1009.6 |
| 20260504042558 | 10 | 193 | 0.0 | 0.0 | 0.00 | 0.00 | 0.00 | 52 | 1009.6 |
| 20260504042055 | 10 | 193 | 0.0 | 0.0 | 0.00 | 0.00 | 0.00 | 52 | 1009.5 |
| 20260504041551 | 10 | 121 | 3.2 | 4.8 | 0.00 | 0.00 | 0.00 | 53 | 1009.7 |
| 20260504041047 | 10 | 182 | 0.0 | 1.6 | 0.00 | 0.00 | 0.00 | 53 | 1009.7 |
| 20260504040545 | 10 | 127 | 3.2 | 9.7 | 0.00 | 0.00 | 0.00 | 53 | 1009.6 |
| 20260504040041 | 10 | 211 | 0.0 | 1.6 | 0.00 | 0.00 | 0.00 | 53 | 1009.6 |
| 20260504035538 | 10 | 188 | 0.0 | 0.0 | 0.00 | 0.00 | 0.00 | 54 | 1009.6 |
| 20260504035034 | 10 | 165 | 1.6 | 1.6 | 0.00 | 0.00 | 0.00 | 54 | 1009.5 |
| 20260504034533 | 10 | 212 | 1.6 | 3.2 | 0.00 | 0.00 | 0.00 | 53 | 1009.7 |
| 20260504034029 | 10 | 206 | 3.2 | 4.8 | 0.00 | 0.00 | 0.00 | 52 | 1009.6 |
| 20260504033528 | 10 | 241 | 1.6 | 3.2 | 0.00 | 0.00 | 0.00 | 53 | 1009.7 |
| 20260504033024 | 10 | 252 | 3.2 | 3.2 | 0.00 | 0.00 | 0.00 | 52 | 1009.6 |
| 20260504032521 | 10 | 196 | 0.0 | 0.0 | 0.00 | 0.00 | 0.00 | 52 | 1009.8 |
| 20260504032018 | 10 | 147 | 3.2 | 4.8 | 0.00 | 0.00 | 0.00 | 52 | 1009.7 |
| 20260504031515 | 11 | 171 | 1.6 | 1.6 | 0.00 | 0.00 | 0.00 | 51 | 1009.8 |
| 20260504031011 | 11 | 206 | 0.0 | 1.6 | 0.00 | 0.00 | 0.00 | 52 | 1009.7 |
| 20260504030509 | 11 | 5 | 4.8 | 6.4 | 0.00 | 0.00 | 0.00 | 51 | 1009.8 |
| 20260504030004 | 10 | 183 | 0.0 | 1.6 | 0.00 | 0.00 | 0.00 | 53 | 1009.6 |
| 20260504025501 | 10 | 189 | 0.0 | 0.0 | 0.00 | 0.00 | 0.00 | 54 | 1009.8 |
| 20260504024958 | 10 | 187 | 0.0 | 0.0 | 0.00 | 0.00 | 0.00 | 54 | 1009.8 |
| 20260504024455 | 11 | 197 | 0.0 | 1.6 | 0.00 | 0.00 | 0.00 | 54 | 1009.7 |
| 20260504023953 | 11 | 202 | 1.6 | 3.2 | 0.00 | 0.00 | 0.00 | 54 | 1009.9 |
| 20260504023449 | 11 | 197 | 0.0 | 1.6 | 0.00 | 0.00 | 0.00 | 53 | 1009.9 |
| 20260504022944 | 11 | 196 | 1.6 | 1.6 | 0.00 | 0.00 | 0.00 | 53 | 1009.9 |
| 20260504022441 | 11 | 193 | 0.0 | 1.6 | 0.00 | 0.00 | 0.00 | 52 | 1010.1 |
| 20260504021938 | 11 | 51 | 1.6 | 3.2 | 0.00 | 0.00 | 0.00 | 52 | 1010.2 |
| 20260504021435 | 11 | 189 | 0.0 | 0.0 | 0.00 | 0.00 | 0.00 | 52 | 1010.2 |
| 20260504020932 | 11 | 309 | 4.8 | 4.8 | 0.00 | 0.00 | 0.00 | 51 | 1009.8 |
| 20260504020429 | 11 | 224 | 4.8 | 6.4 | 0.00 | 0.00 | 0.00 | 52 | 1009.9 |
| 20260504015925 | 11 | 179 | 1.6 | 3.2 | 0.00 | 0.00 | 0.00 | 52 | 1010.0 |
| 20260504015421 | 11 | 219 | 3.2 | 4.8 | 0.00 | 0.00 | 0.00 | 51 | 1010.1 |
| 20260504014917 | 11 | 306 | 9.7 | 16.1 | 0.00 | 0.00 | 0.00 | 50 | 1010.1 |
| 20260504014414 | 12 | 343 | 4.8 | 14.5 | 0.00 | 0.00 | 0.00 | 49 | 1010.3 |
| 20260504013911 | 12 | 276 | 6.4 | 6.4 | 0.00 | 0.00 | 0.00 | 47 | 1010.1 |
| 20260504013409 | 12 | 105 | 4.8 | 6.4 | 0.00 | 0.00 | 0.00 | 48 | 1009.9 |
| 20260504012905 | 12 | 181 | 8.0 | 16.1 | 0.00 | 0.00 | 0.00 | 47 | 1009.9 |
| 20260504012403 | 11 | 324 | 8.0 | 16.1 | 0.00 | 0.00 | 0.00 | 48 | 1009.9 |
| 20260504011900 | 11 | 320 | 8.0 | 14.5 | 0.00 | 0.00 | 0.00 | 47 | 1009.8 |
| 20260504011356 | 11 | 241 | 1.6 | 1.6 | 0.00 | 0.00 | 0.00 | 48 | 1010.1 |
| 20260504010847 | 11 | 301 | 4.8 | 6.4 | 0.00 | 0.00 | 0.00 | 49 | 1009.8 |
| 20260504010343 | 11 | 247 | 4.8 | 4.8 | 0.00 | 0.00 | 0.00 | 49 | 1009.9 |
| 20260504005839 | 11 | 26 | 3.2 | 4.8 | 0.00 | 0.00 | 0.00 | 49 | 1010.2 |
| 20260504005336 | 11 | 289 | 6.4 | 11.3 | 0.00 | 0.00 | 0.00 | 48 | 1010.1 |
| 20260504004834 | 11 | 199 | 9.7 | 20.9 | 0.00 | 0.00 | 0.00 | 47 | 1010.3 |
| 20260504004331 | 11 | 177 | 6.4 | 9.7 | 0.00 | 0.00 | 0.00 | 47 | 1010.3 |
| 20260504003827 | 11 | 143 | 6.4 | 11.3 | 0.00 | 0.00 | 0.00 | 46 | 1010.4 |
| 20260504003325 | 11 | 194 | 1.6 | 3.2 | 0.00 | 0.00 | 0.00 | 48 | 1010.2 |
| 20260504002821 | 11 | 242 | 8.0 | 12.9 | 0.00 | 0.00 | 0.00 | 47 | 1010.4 |
| 20260504002318 | 11 | 116 | 11.3 | 20.9 | 0.00 | 0.00 | 0.00 | 46 | 1010.3 |
| 20260504001816 | 11 | 289 | 8.0 | 11.3 | 0.00 | 0.00 | 0.00 | 45 | 1010.4 |
| 20260504001313 | 11 | 302 | 9.7 | 14.5 | 0.00 | 0.00 | 0.00 | 44 | 1010.4 |
| 20260504000810 | 11 | 237 | 4.8 | 6.4 | 0.00 | 0.00 | 0.00 | 45 | 1010.2 |
| 20260504000307 | 11 | 293 | 8.0 | 9.7 | 0.00 | 0.00 | 0.00 | 46 | 1009.9 |
| 20260503235804 | 11 | 253 | 3.2 | 4.8 | 0.00 | 0.00 | 0.00 | 46 | 1009.9 |
| 20260503235302 | 11 | 237 | 4.8 | 4.8 | 0.00 | 0.00 | 0.00 | 45 | 1009.9 |
| 20260503234759 | 11 | 199 | 4.8 | 4.8 | 0.00 | 0.00 | 0.00 | 46 | 1010.0 |
| 20260503234257 | 11 | 318 | 6.4 | 9.7 | 0.00 | 0.00 | 0.00 | 46 | 1010.0 |
| 20260503233754 | 11 | 294 | 6.4 | 16.1 | 0.00 | 0.00 | 0.00 | 45 | 1010.0 |
| 20260503233249 | 11 | 310 | 4.8 | 4.8 | 0.00 | 0.00 | 0.00 | 45 | 1010.1 |
| 20260503232746 | 11 | 157 | 6.4 | 11.3 | 0.00 | 0.00 | 0.00 | 45 | 1010.1 |
| 20260503232238 | 11 | 259 | 12.9 | 24.1 | 0.00 | 0.00 | 0.00 | 44 | 1010.3 |
| 20260503231736 | 12 | 303 | 9.7 | 14.5 | 0.00 | 0.00 | 0.00 | 43 | 1010.2 |
| 20260503231233 | 12 | 320 | 16.1 | 30.6 | 0.00 | 0.00 | 0.00 | 43 | 1010.0 |
| 20260503230728 | 12 | 261 | 9.7 | 17.7 | 0.00 | 0.00 | 0.00 | 43 | 1010.0 |
| 20260503230226 | 12 | 44 | 12.9 | 17.7 | 0.00 | 0.00 | 0.00 | 44 | 1009.9 |
| 20260503225718 | 12 | 15 | 8.0 | 12.9 | 0.00 | 0.00 | 0.00 | 44 | 1009.7 |
| 20260503225217 | 12 | 275 | 16.1 | 35.4 | 0.00 | 0.00 | 0.00 | 42 | 1009.8 |
| 20260503224714 | 12 | 148 | 4.8 | 6.4 | 0.00 | 0.00 | 0.00 | 42 | 1009.5 |
| 20260503224212 | 12 | 287 | 4.8 | 6.4 | 0.00 | 0.00 | 0.00 | 41 | 1009.7 |
| 20260503223710 | 12 | 310 | 11.3 | 14.5 | 0.00 | 0.00 | 0.00 | 40 | 1009.6 |
| 20260503223208 | 13 | 288 | 14.5 | 22.5 | 0.00 | 0.00 | 0.00 | 38 | 1009.6 |
| 20260503222704 | 13 | 41 | 9.7 | 12.9 | 0.00 | 0.00 | 0.00 | 38 | 1009.7 |
| 20260503222202 | 13 | 63 | 6.4 | 9.7 | 0.00 | 0.00 | 0.00 | 38 | 1009.4 |
| 20260503221700 | 13 | 298 | 6.4 | 6.4 | 0.00 | 0.00 | 0.00 | 38 | 1009.6 |
| 20260503221157 | 13 | 133 | 8.0 | 12.9 | 0.00 | 0.00 | 0.00 | 38 | 1009.4 |
| 20260503220654 | 13 | 342 | 11.3 | 14.5 | 0.00 | 0.00 | 0.00 | 38 | 1009.6 |
| 20260503220150 | 13 | 288 | 8.0 | 11.3 | 0.00 | 0.00 | 0.00 | 37 | 1009.5 |
| 20260503215647 | 13 | 13 | 6.4 | 11.3 | 0.00 | 0.00 | 0.00 | 37 | 1009.7 |